Regional Weather Roundup
Issued by NWS Glasgow, MT

Home | Current Version | Previous Version | Text Only | Print | Product List | Glossary On
Versions: 1 2 3 4 5 6 7 8 9 10 11 12 13 14 15 16 17 18 19 20 21 22 23 24 25 26 27 28 29 30 31 32 33 34 35 36 37 38 39 40 41 42 43 44 45 46 47 48 49 50
367
ASUS45 KGGW 090215
RWRGGW
HOURLY REGIONAL WEATHER ROUNDUP FOR NORTHEAST MONTANA
NATIONAL WEATHER SERVICE GLASGOW MONTANA
700 PM MST MON FEB 08 2016

NOTE: "FAIR" INDICATES FEW OR NO CLOUDS BELOW 12,000 FEET WITH NO
SIGNIFICANT WEATHER AND/OR OBSTRUCTIONS TO VISISBILITY.

NORTHEAST MONTANA


CITY           SKY/WX    TMP DP  RH WIND       PRES   REMARKS
GLASGOW        CLOUDY    30  22  72 E8        30.25F
PLENTYWOOD       N/A     33  22  63 S2          N/A
WOLF POINT     CLOUDY    30  23  75 CALM      30.27F
JORDAN           N/A     32  27  81 W5        30.26F
WINNETT          N/A     41  29  62 CALM        N/A
SIDNEY         CLOUDY    34  18  51 CALM      30.28F
GLENDIVE       CLOUDY    27  16  63 CALM      30.29F
MALTA            N/A     39  32  76 SW7         N/A
SCOBEY           N/A     31  16  54 CALM      30.21F

FORT PECK REPORTS


CITY           SKY/WX    TMP DP  RH WIND       PRES   REMARKS
FORT PECK        N/A     35  19  52 SE2         N/A
THE PINES        N/A     36  20  52 E2          N/A

SOUTHEAST MONTANA


CITY           SKY/WX    TMP DP  RH WIND       PRES   REMARKS
BILLINGS       CLOUDY    49  27  42 W21       30.31F
MILES CITY     CLOUDY    38  25  59 N3        30.25F
BAKER          CLEAR     33  12  41 CALM      30.26R
LIVINGSTON     CLOUDY    45  28  51 W16       30.42R

CENTRAL MONTANA


CITY           SKY/WX    TMP DP  RH WIND       PRES   REMARKS
HAVRE          CLOUDY    35  27  72 CALM      30.27F
LEWISTOWN      CLOUDY    39  29  67 W13       30.32S
GREAT FALLS    CLOUDY    41  28  60 SW10      30.33F
CUT BANK       CLOUDY    46  30  53 W25       30.29F
HELENA         CLOUDY    49  34  56 W17       30.42S
BUTTE          CLOUDY    35  28  75 E7        30.51R
BOZEMAN        CLOUDY    35  28  75 CALM      30.47S

WESTERN MONTANA


CITY           SKY/WX    TMP DP  RH WIND       PRES   REMARKS
MISSOULA       PTCLDY    36  28  73 N3        30.54S
KALISPELL      NOT AVBL

NORTH DAKOTA


CITY           SKY/WX    TMP DP  RH WIND       PRES   REMARKS
WILLISTON      CLOUDY    32  21  64 NE6       30.28F
DICKINSON      CLOUDY    30  15  53 NW8       30.23F
MINOT          PTCLDY    20  12  71 NW8       30.26F
BISMARCK       CLOUDY    31  17  56 NW13      30.26R

SOUTHERN SASKATCHEWAN


CITY           SKY/WX    TMP DP  RH WIND       PRES   REMARKS
REGINA         NOT AVBL
ESTEVAN        CLOUDY    25  21  86 CALM      30.26F
SWIFT CURRENT  CLOUDY    34  25  69 W9        30.20F





USA.gov is the U.S. government's official web portal to all federal, state and local government web resources and services.